When you browse on this site, cookies collect data to enhance your experience and personalize the content and advertising you see.
Visit our Privacy Policy to learn more. By continuing to use the site, you agree to this use of cookies and data.
  • In Spain
  • List of Countries
  • For 7 days
  • Water Temperature
  • Satellite Maps
  • Weather Map
  • Weather Widgets
  • user-avatar
    Login

    Hourly Weather Akka

    Today, 18 April, Thursday

    Time Temperature Precipitation Wind Pressure Humidity
    00:00 +14°C° 0.1 mm 3 mps 761 mmHg 86%
    01:00 +14°C° 0.1 mm 3 mps 761 mmHg 86%
    02:00 +14°C° 0 mm 3 mps 760 mmHg 86%
    03:00 +14°C° 0.1 mm 3 mps 760 mmHg 86%
    04:00 +14°C° 0.1 mm 3 mps 761 mmHg 85%
    05:00 +14°C° 0.1 mm 3 mps 761 mmHg 85%
    06:00 +15°C° 0.1 mm 4 mps 761 mmHg 82%
    07:00 +17°C° 0.1 mm 4 mps 761 mmHg 78%
    08:00 +17°C° 0 mm 5 mps 761 mmHg 73%
    09:00 +17°C° 0.1 mm 5 mps 761 mmHg 71%
    10:00 +19°C° 0.1 mm 5 mps 761 mmHg 69%
    11:00 +19°C° 0.1 mm 5 mps 761 mmHg 67%
    12:00 +19°C° 0.1 mm 5 mps 761 mmHg 66%
    13:00 +19°C° 0.1 mm 5 mps 761 mmHg 65%
    14:00 +19°C° 0.1 mm 5 mps 761 mmHg 64%
    15:00 +19°C° 0 mm 5 mps 761 mmHg 66%
    16:00 +17°C° 0 mm 5 mps 761 mmHg 68%
    17:00 +18°C° 0 mm 4 mps 761 mmHg 70%
    18:00 +17°C° 0 mm 4 mps 761 mmHg 72%
    19:00 +16°C° 0 mm 3 mps 761 mmHg 74%
    20:00 +14°C° 0 mm 3 mps 761 mmHg 77%
    21:00 +14°C° 0 mm 3 mps 761 mmHg 77%
    22:00 +14°C° 0 mm 3 mps 761 mmHg 77%
    23:00 +14°C° 0 mm 3 mps 761 mmHg 77%

    Tomorrow, 19 April, Friday

    Time Temperature Precipitation Wind Pressure Humidity
    00:00 +14°C° 0.1 mm 3 mps 761 mmHg 78%
    01:00 +14°C° 0.1 mm 4 mps 761 mmHg 79%
    02:00 +14°C° 0.1 mm 4 mps 760 mmHg 80%
    03:00 +14°C° 0.1 mm 4 mps 760 mmHg 81%
    04:00 +13°C° 0.1 mm 5 mps 760 mmHg 82%
    05:00 +13°C° 0.1 mm 5 mps 760 mmHg 83%
    06:00 +14°C° 0.1 mm 5 mps 760 mmHg 79%
    07:00 +15°C° 0.1 mm 6 mps 760 mmHg 75%
    08:00 +16°C° 0.1 mm 6 mps 761 mmHg 70%
    09:00 +17°C° 0.1 mm 7 mps 761 mmHg 68%
    10:00 +17°C° 0.1 mm 7 mps 761 mmHg 65%
    11:00 +18°C° 0.1 mm 8 mps 761 mmHg 63%
    12:00 +18°C° 0.2 mm 8 mps 761 mmHg 63%
    13:00 +18°C° 0.2 mm 8 mps 761 mmHg 63%
    14:00 +18°C° 0.2 mm 8 mps 760 mmHg 63%
    15:00 +17°C° 0.5 mm 7 mps 760 mmHg 66%
    16:00 +17°C° 0.5 mm 7 mps 760 mmHg 70%
    17:00 +16°C° 0.5 mm 7 mps 760 mmHg 73%
    18:00 +15°C° 0.2 mm 6 mps 760 mmHg 76%
    19:00 +15°C° 0.2 mm 5 mps 760 mmHg 78%
    20:00 +14°C° 0.2 mm 5 mps 761 mmHg 81%
    21:00 +14°C° 0.1 mm 5 mps 761 mmHg 81%
    22:00 +14°C° 0.1 mm 5 mps 761 mmHg 82%
    23:00 +14°C° 0.1 mm 4 mps 761 mmHg 82%

    Day after tomorrow, 20 April, Saturday

    Time Temperature Precipitation Wind Pressure Humidity
    00:00 +14°C° 0.1 mm 4 mps 761 mmHg 82%
    01:00 +14°C° 0.1 mm 4 mps 760 mmHg 83%
    02:00 +13°C° 0.1 mm 4 mps 760 mmHg 83%
    03:00 +13°C° 0.1 mm 4 mps 760 mmHg 83%
    04:00 +13°C° 0.1 mm 4 mps 760 mmHg 83%
    05:00 +13°C° 0.1 mm 3 mps 760 mmHg 83%
    06:00 +14°C° 0.1 mm 4 mps 760 mmHg 80%
    07:00 +15°C° 0.1 mm 5 mps 760 mmHg 77%
    08:00 +16°C° 0.1 mm 5 mps 760 mmHg 74%
    09:00 +16°C° 0.2 mm 5 mps 760 mmHg 72%
    10:00 +17°C° 0.2 mm 6 mps 760 mmHg 69%
    11:00 +19°C° 0.2 mm 6 mps 760 mmHg 67%
    12:00 +18°C° 0.2 mm 7 mps 760 mmHg 67%
    13:00 +18°C° 0.2 mm 7 mps 760 mmHg 66%
    14:00 +18°C° 0.2 mm 7 mps 760 mmHg 66%
    15:00 +17°C° 0.1 mm 7 mps 760 mmHg 68%
    16:00 +17°C° 0.1 mm 7 mps 760 mmHg 71%
    17:00 +16°C° 0.1 mm 7 mps 760 mmHg 73%
    18:00 +16°C° 0.1 mm 6 mps 760 mmHg 76%
    19:00 +15°C° 0.1 mm 6 mps 760 mmHg 80%
    20:00 +14°C° 0.1 mm 5 mps 760 mmHg 83%
    21:00 +14°C° 0.1 mm 5 mps 760 mmHg 84%
    22:00 +14°C° 0.1 mm 5 mps 760 mmHg 84%
    23:00 +14°C° 0.1 mm 5 mps 760 mmHg 85%

    21 April, Sunday

    Time Temperature Precipitation Wind Pressure Humidity
    00:00 +14°C° 0.2 mm 6 mps 759 mmHg 85%
    01:00 +14°C° 0.2 mm 6 mps 759 mmHg 84%
    02:00 +14°C° 0.2 mm 6 mps 759 mmHg 83%
    03:00 +14°C° 0.3 mm 7 mps 758 mmHg 83%
    04:00 +12°C° 0.3 mm 7 mps 758 mmHg 83%
    05:00 +12°C° 0.3 mm 8 mps 758 mmHg 82%
    06:00 +13°C° 0.6 mm 8 mps 758 mmHg 78%
    07:00 +13°C° 0.6 mm 9 mps 758 mmHg 73%
    08:00 +14°C° 0.6 mm 10 mps 758 mmHg 69%
    09:00 +14°C° 0.9 mm 10 mps 758 mmHg 68%
    10:00 +16°C° 0.9 mm 9 mps 759 mmHg 67%
    11:00 +16°C° 0.9 mm 9 mps 759 mmHg 67%
    12:00 +16°C° 0.5 mm 10 mps 759 mmHg 67%
    13:00 +16°C° 0.5 mm 10 mps 759 mmHg 67%
    14:00 +16°C° 0.5 mm 11 mps 759 mmHg 67%
    15:00 +16°C° 0.3 mm 10 mps 760 mmHg 65%
    16:00 +15°C° 0.3 mm 9 mps 760 mmHg 64%
    17:00 +15°C° 0.3 mm 8 mps 760 mmHg 63%
    18:00 +15°C° 0 mm 7 mps 761 mmHg 63%
    19:00 +14°C° 0 mm 6 mps 761 mmHg 62%
    20:00 +13°C° 0 mm 5 mps 762 mmHg 62%
    21:00 +13°C° 0 mm 5 mps 762 mmHg 65%
    22:00 +13°C° 0 mm 5 mps 762 mmHg 67%
    23:00 +13°C° 0 mm 5 mps 762 mmHg 70%

    22 April, Monday

    Time Temperature Precipitation Wind Pressure Humidity
    00:00 +13°C° 0 mm 5 mps 762 mmHg 71%
    01:00 +13°C° 0 mm 5 mps 762 mmHg 72%
    02:00 +13°C° 0 mm 5 mps 761 mmHg 74%
    03:00 +13°C° 0 mm 5 mps 761 mmHg 74%
    04:00 +13°C° 0 mm 4 mps 761 mmHg 75%
    05:00 +13°C° 0 mm 4 mps 762 mmHg 75%
    06:00 +14°C° 0 mm 5 mps 762 mmHg 73%
    07:00 +15°C° 0 mm 5 mps 762 mmHg 70%
    08:00 +17°C° 0 mm 6 mps 763 mmHg 68%
    09:00 +17°C° 0.1 mm 6 mps 763 mmHg 68%
    10:00 +17°C° 0.1 mm 6 mps 763 mmHg 67%
    11:00 +19°C° 0.1 mm 6 mps 763 mmHg 67%
    12:00 +19°C° 0 mm 6 mps 763 mmHg 64%
    13:00 +19°C° 0 mm 6 mps 763 mmHg 62%
    14:00 +19°C° 0 mm 5 mps 762 mmHg 59%
    15:00 +17°C° 0 mm 5 mps 762 mmHg 61%
    16:00 +17°C° 0 mm 5 mps 762 mmHg 64%
    17:00 +17°C° 0 mm 4 mps 763 mmHg 66%
    18:00 +17°C° 0 mm 4 mps 763 mmHg 69%
    19:00 +16°C° 0 mm 3 mps 763 mmHg 72%
    20:00 +16°C° 0 mm 3 mps 764 mmHg 75%
    21:00 +16°C° 0.1 mm 3 mps 764 mmHg 76%
    22:00 +16°C° 0.1 mm 2 mps 764 mmHg 77%
    23:00 +16°C° 0.1 mm 2 mps 764 mmHg 79%

    23 April, Tuesday

    Time Temperature Precipitation Wind Pressure Humidity
    00:00 +15°C° 0 mm 1 mps 764 mmHg 79%
    01:00 +15°C° 0 mm 1 mps 764 mmHg 79%
    02:00 +15°C° 0 mm 1 mps 764 mmHg 79%
    03:00 +15°C° 0 mm 1 mps 764 mmHg 80%
    04:00 +14°C° 0 mm 1 mps 765 mmHg 81%
    05:00 +14°C° 0 mm 1 mps 765 mmHg 81%
    06:00 +15°C° 0 mm 1 mps 765 mmHg 75%
    07:00 +18°C° 0 mm 1 mps 766 mmHg 70%
    08:00 +18°C° 0 mm 2 mps 766 mmHg 64%
    09:00 +19°C° 0 mm 2 mps 766 mmHg 60%
    10:00 +20°C° 0 mm 3 mps 766 mmHg 57%
    11:00 +21°C° 0 mm 4 mps 767 mmHg 53%
    12:00 +21°C° 0 mm 4 mps 766 mmHg 55%
    13:00 +21°C° 0 mm 5 mps 766 mmHg 57%
    14:00 +21°C° 0 mm 5 mps 766 mmHg 59%
    15:00 +21°C° 0 mm 5 mps 766 mmHg 61%
    16:00 +20°C° 0 mm 5 mps 765 mmHg 62%
    17:00 +19°C° 0 mm 5 mps 765 mmHg 64%
    18:00 +17°C° 0 mm 5 mps 766 mmHg 67%
    19:00 +17°C° 0 mm 4 mps 766 mmHg 70%
    20:00 +15°C° 0 mm 4 mps 766 mmHg 73%
    21:00 +15°C° 0 mm 4 mps 766 mmHg 74%
    22:00 +16°C° 0 mm 3 mps 766 mmHg 75%
    23:00 +16°C° 0 mm 3 mps 766 mmHg 75%
    Show more